Location: Budapest
(47.4979°N, 19.0402°E)
Time: 09:15:01
(UTC+02:00)

Tiangong 1 - Pass Details

Date: 16 October 2017
Orbit: 293 x 320 km, 42.8° (Epoch: 19 October)

Event Time Altitude Azimuth Distance (km) Brightness Sun altitude
Rises 18:49:22 0° 262° (W) 2,046 7.0 -10.1°
Reaches altitude 10° 18:52:25 10° 225° (SW) 1,206 4.3 -10.6°
Maximum altitude 18:53:18 11° 205° (SSW) 1,140 3.8 -10.8°
Drops below altitude 10° 18:54:11 10° 186° (S) 1,199 3.7 -10.9°
Enters shadow 18:56:28 - 154° (SSE) 1,768 4.2 -11.3°
